Location: Unspecified
(0.0000°N, 0.0000°E)
Time: 08:13:33
(UTC+00:00)

STARLINK-2745 - Pass Details

Date: 12 June 2021
Orbit: 348 x 351 km, 53.0° (Epoch: 20 June)

Event Time Altitude Azimuth Distance (km) Brightness Sun altitude
Exits shadow 04:36:28 - 155° (SSE) 1,386 5.7 -19.1°
Reaches altitude 10° 04:36:56 10° 147° (SSE) 1,302 5.6 -19.0°
Maximum altitude 04:38:01 12° 125° (SE) 1,215 5.8 -18.8°
Drops below altitude 10° 04:39:06 10° 103° (ESE) 1,300 6.3 -18.5°
Sets 04:42:08 0° 67° (ENE) 2,137 8.4 -17.8°
